Погода в Лагани

Поиск расширенной информации на нашем сайте:

Полезная информация:

Новости сайта



02.01.2020
Опубликован Долгосрочный прогноз погоды по городам России и ближнего зарубежья на январь 2020 года.
Карты: Прогноз на январь и февраль 2020 года, Сравнение прогнозируемой аномалии приземной температуры воздуха на январь 2020 года по разным моделям.




Погода в Лагани - сегодня

Время (UTC), дата Ветер
(°,м/с) 
Видим.   Явления Облачность Т
(°С)
Тd
(°С)
f(%) Тe
(°С)
Pmin
(гПа)
dP
(гПа)
Po
(мм)
O2
(г/м3)
Тmin Tmax R s Состояние
почвы
15 18.10.20 110 (В) 6{13}  20000 м    8/5 600 м средняя, верхняя 
[Sc|Ac trans|Ci fib]
+21.1 +16.8 76 +33  1012.1  -1  761  281    +23.6       
18 18.10.20 070 (В) 10 км    4/0 средняя 
[Ac trans]
+14.3 +13 92 +20  1017.3  -0.1  765  290           
21 18.10.20 060 (СВ) 4000 м  дымка  ясно 
+12.8 +11.9 94 +16  1015.8  -1.4  764  292           
00 19.10.20 330 (СЗ) 0500 м  туман  ясно 
+8.3 +7.5 95 +9  1015.7  764  297           
03 19.10.20 020 (С) 0500 м  туман  ясно 
+7.6 +7 96 +8  1015.9  0.1  764  298  +7.4    0.3    влажная 
06 19.10.20 350 (С) 10 км  {туман}  3/0 верхняя 
[Ci fib]
+13.1 +11.4 89 +17  1016.7  0.8  764  292  +7.2         
09 19.10.20 330 (СЗ) 20000 м    1/0 верхняя 
[Ci fib]
+20.9 +9.2 47 +21  1015.3  -1.4  763  284           
12 19.10.20 340 (С) 20000 м    4/0 верхняя 
[Ci fib]
+23 +5.1 31 +23  1014  -1.4  762  283           
15 19.10.20 180 (Ю) 20000 м    8/0 средняя, верхняя 
[Ac trans|Ci fib]
+15.5 +8.5 63 +16  1014  762  289    +23.1       
18 19.10.20 240 (ЮЗ) 10 км    9/0 средняя, верхняя 
[Ac trans|Ci fib]
+11.9 +8.6 80 +13  1013.9  762  293           
21 19.10.20 280 (З) 10 км    9/0 средняя, верхняя 
[Ac trans|Ci fib]
+10.5 +7.7 83 +11  1015.1  1.2  763  295           
00 20.10.20 260 (З) 10 км    9/0 средняя, верхняя 
[Ac trans|Ci fib]
+12.7 +10.3 85 +13  1016.2  1.1  764  292           
03 20.10.20 320 (СЗ) 10 км    10/8 300 м средняя 
[St|Ac As]
+12.1 +9.3 83 +12  1019.1  2.9  766  294  +9.2        сухая 
06 20.10.20 310 (СЗ) 4{11}  10 км    6/6 1000 м 
[Sc]
+12.9 +7.1 68 +12  1023.1  769  295           
09 20.10.20 310 (СЗ) 20000 м    4/4 1000 м 
[Cu hum]
+15.9 +5.3 49 +16  1023.7  0.6  770  292           
12 20.10.20 300 (СЗ) 20000 м    3/0 верхняя 
[Ci sp]
+16.6 +3.1 40 +17  1023.6  -0.2  770  292           
15 20.10.20 300 (СЗ) 20000 м    3/0 средняя 
[Ac und]
+11.4 +2.3 54 +13  1024.2  0.7  770  298    +16.9       
18 20.10.20 200 (Ю) 20000 м    8/0 средняя 
[Ac trans]
+10.4 +2.6 58 +11  1024.5  0.3  770  299           
21 20.10.20 240 (ЮЗ) 20000 м    9/4 600 м кучево-дожд., средняя 
[Cb cap|Ac As]
+12 +3.7 57 +12  1024.6  0.1  770  297           
00 21.10.20 300 (СЗ) 20000 м    8/3 600 м кучево-дожд., средняя 
[Cb cap|Ac cuf]
+10.3 +5.2 71 +10  1025.3  0.7  771  299           
03 21.10.20 270 (З) 10 км    4/4 600 м 
[Sc diur, vesp]
+5.8 +2.9 82 +6  1026.4  1.2  772  304  +5.8         
06 21.10.20 280 (З) 20000 м    ясно 
+10.3 +1.8 56 +9  1028.5  773  300  +4.7         
09 21.10.20 280 (З) 8-13{13}  20000 м    4/4 1000 м 
[Cu hum]
+14.6 -2.3 31 +14  1027.9  -0.6  773  296           
12 21.10.20 290 (З) 7-11{14}  20000 м    ясно 
+14.8 -2.6 30 +14  1027.2  -0.7  772  296           
15 21.10.20 290 (З) 2{11}  20000 м    1/0 верхняя 
[Ci sp]
+9.2 -2.5 44 +9  1028.1  773  302    +15.2       
Время (UTC), дата Ветер
(°,м/с) 
Видим.   Явления Облачность Т
(°С)
Тd
(°С)
f(%) Тe
(°С)
Pmin
(гПа)
dP
(гПа)
Po
(мм)
O2
(г/м3)
Тmin Tmax R s Состояние
почвы

Для получения пояснительной информации подведите курсор к названию столбца.

ПОГОДА в Лагани - архив

Всё, что Вы хотите узнать о погоде в Лагани - удобно и подробно!

Выберите нужную дату (начиная с 1 января 2019* года) и нажмите кнопку "Найти".
Будут отображены архивные сводки погоды по пункту Лагань, начиная с указанной даты.


Отображать данные в формате CSV (для использования в таблицах Excel)


Внимание! Наш архив погоды предназначен исключительно для личного некоммерческого использования в познавательных целях. Если Вам необходимы официальные справки о состоянии погоды (для производственных, юридических, коммерческих и т.п. целей), обращайтесь в органы Росгидромета.

*Примечание: данная дата относится к архиву по метеостанциям СССР (Россия, СНГ, Балтия).
Архив по метеостанциям Зарубежной Европы и Азии (кроме Китая) хранится 10 дней, по другим регионам земного шара (Китай, Африка, Америка, Австралия, Океания) - 1 день.

Лагань - район местоположения метеостанции


Название, широта, долгота, высота метеостанции:
Лагань 45.4°ш. 47.3°д. -24 м над ур. моря [Российская Федерация]

Дополнительная информация

В oтличие oт бoльшинства пoгoдных сайтoв мы публикуем пoдрoбную метеoинфoрмацию в детальнoм прoфессиoнальнoм фoрмате.

Характеристики температуры и влажнoсти вoздуха измеряются на высoте 2 м в тени вдали oт зданий и деревьев.
Скoрoсть ветра измеряется на высoте 10 м (на урoвне рoста челoвека скoрoсть ветра ниже в 1.5-2 раза). Если метеoстанция нахoдится в гoрoде или в лесу, тo скoрoсть ветра занижена на 2-4 м/с пo сравнению с oткрытым местoм. Скoрoсть ветра над акватoриями крупных рек и oзёр, а также на вершинах хoлмoв на 2-5 м/с выше, чем в oбычных услoвиях.
Атмoсфернoе давление в разных тoчках местнoсти мoжет значительнo oтличаться oт давления на метеoстанции, в зависимoсти oт услoвий рельефа (при пoдъёме на 10 м давление пoнижается примернo на 1 мм рт.ст.).